Miscellaneous Local Product
Issued by NWS Hastings, NE

Home | Current Version | Previous Version | Graphics & Text | Print | Product List | Glossary On
Versions: 1 2 3 4 5 6 7 8 9 10 11 12 13 14 15 16 17 18 19 20 21 22 23 24 25 26 27 28 29 30 31 32 33 34 35 36 37 38 39 40 41 42 43 44 45 46 47 48 49 50
000
AXUS43 KGID 261402
MISGRI

GID CWA HOURLY WEATHER ROUNDUP
NATIONAL WEATHER SERVICE HASTINGS NE
800 AM CST WED NOV 26 2014

NOTE: "FAIR" INDICATES FEW OR NO CLOUDS BELOW 12,000 FEET WITH NO
SIGNIFICANT WEATHER AND/OR OBSTRUCTIONS TO VISIBILITY.

...SOUTH CENTRAL NEBRASKA...

CITY           SKY/WX    TMP DP  RH WIND       PRES   REMARKS
GRAND ISLAND   CLOUDY    29  22  75 NW30G38   30.08R WCI  13
HASTINGS       CLOUDY    32  23  69 NW31G41   30.07R WCI  17
KEARNEY        CLOUDY    30  19  64 NW21G26   30.11R WCI  17
ORD            CLOUDY    25  20  81 NW25G36   30.11R WCI   9
YORK           CLOUDY    32  27  80 NW29G36   30.03R WCI  18
AURORA         CLOUDY    31  24  77 NW29G36   30.06R WCI  16
LEXINGTON      CLOUDY    31  21  66 NW22G32   30.13R WCI  18
HOLDREGE       CLOUDY    32  21  63 NW14G28   30.11R WCI  22
HEBRON         CLOUDY    38  24  56 NW14G23   30.03R WCI  30

...NEBRASKA PANHANDLE...

CITY           SKY/WX    TMP DP  RH WIND       PRES   REMARKS
CHADRON        CLOUDY    33  20  58 NE3       30.22R
ALLIANCE       CLOUDY    25  21  85 N9        30.19R WCI  15
SCOTTSBLUFF    LGT SNOW  29  25  85 NW8       30.20R FOG     WCI  21
SIDNEY         LGT SNOW  28  24  85 NW10      30.19R FOG     WCI  19

...WESTERN AND NORTH CENTRAL NEBRASKA...

CITY           SKY/WX    TMP DP  RH WIND       PRES   REMARKS
VALENTINE      CLOUDY    22  17  81 N16G23    30.21R WCI   8
AINSWORTH      CLOUDY    21  18  89 NW23G30   30.17R WCI   5
ONEILL         CLOUDY    23  21  92 NW22      30.12R WCI   8
BROKEN BOW     CLOUDY    28  20  71 N33G40    30.11R WCI  11
IMPERIAL       CLOUDY    31  18  58 NW18      30.19R WCI  19
NORTH PLATTE   CLOUDY    27  19  72 NW14      30.18R WCI  16
MCCOOK         CLOUDY    33  20  58 NW22G31   30.17R WCI  21

...EASTERN NEBRASKA...

CITY           SKY/WX    TMP DP  RH WIND       PRES   REMARKS
NORFOLK        CLOUDY    28  25  88 NW26G36   30.01R WCI  13
SO SIOUX CITY  CLOUDY    34  30  85 N22G28    29.95R WCI  22
TEKAMAH        CLOUDY    37  33  85 NW21G29   29.92R WCI  26
COLUMBUS       CLOUDY    32  25  74 NW24G35   30.01R WCI  19
ALBION         CLOUDY    28  23  82 NW30G46   30.04R WCI  12
OMAHA EPPLEY   LGT RAIN  37  33  85 NW24G32   29.91R WCI  26
OFFUTT AFB     CLOUDY    37  32  81 NW17G29   29.90R WCI  28
MILLARD        CLOUDY    38  33  81 NW18G25   29.91R WCI  28
LINCOLN        CLOUDY    37  26  64 NW20G31   29.99R WCI  27
NEBRASKA CITY  CLOUDY    37  31  77 NW17G24   29.91R WCI  28
BEATRICE       CLOUDY    35  29  78 NW15      29.98R WCI  26
FALLS CITY     CLOUDY    38  31  76 W20       29.93R WCI  28

...NORTHERN KANSAS...

CITY           SKY/WX    TMP DP  RH WIND       PRES   REMARKS
GOODLAND       CLOUDY    30  27  88 NW17      30.19R WCI  18
HILL CITY      PTCLDY    37  24  59 NW16G24   30.14R WCI  28
NORTON         MOSUNNY   36  19  51 NW22G28   30.13R WCI  24
PHILLIPSBURG   CLEAR     37  25  60 NW24G32   30.13R WCI  26
SMITH CENTER   PTCLDY    34  21  60 NW24G35   30.10R WCI  21
BELOIT         CLOUDY    39  25  56 NW24G32   30.07R WCI  28
HAYS           PTCLDY    37  23  56 NW10      30.11R WCI  30
RUSSELL        PTCLDY    36  27  69 NW13      30.09R WCI  27
CONCORDIA      CLOUDY    40  24  53 NW24G32   30.04R WCI  29
SALINA         MOCLDY    40  29  64 NW14      30.07R WCI  32
TOPEKA         CLOUDY    40  31  70 W7        29.99R



USA.gov is the U.S. government's official web portal to all federal, state and local government web resources and services.